Rapid City, SD

12:07 PM MDT on March 29, 2017 (GMT -0600)
Rapid City Regional

Weather History for KRAP - November, 2011

Change the Weather History Date:

Tuesday, November 8, 2011

  Actual Average Record
Temperature  
Mean Temperature 34 °F 38 °F  
Max Temperature 49 °F 51 °F 83 °F (1999)
Min Temperature 18 °F 25 °F 9 °F (2000)
Degree Days  
Heating Degree Days 31 27  
Month to date heating degree days 228 201  
Since 1 July heating degree days 839 963  
Cooling Degree Days 0 0  
Month to date cooling degree days 0 0  
Year to date cooling degree days 699 636  
Moisture  
Dew Point 19 °F    
Average Humidity 60    
Maximum Humidity 91    
Minimum Humidity 28    
Precipitation  
Precipitation 0.00 in 0.03 in 0.58 in (1966)
Month to date precipitation 0.03 0.18  
Year to date precipitation 18.45 15.52  
Snow  
Snow 0.00 in 0.20 in 6.20 in (1985)
Month to date snowfall T 1.5  
Since 1 July snowfall T 3.3  
Since 1 September snowfall T 3.3  
Snow Depth 0.00 in    
Sea Level Pressure  
Sea Level Pressure 30.21 in    
Wind  
Wind Speed 8 mph (NNW)    
Max Wind Speed 20 mph    
Max Gust Speed 29 mph    
Visibility 10 miles    
Events      
T = Trace of Precipitation, MM = Missing Value Source: NWS Daily Summary

Daily Weather History Graph

Daily Weather History Graph

Search for Another Location

Airport or City:

Trip Planner

Search our weather history database for the weather conditions in past years. The results will help you decide how hot, cold, wet, or windy it might be!

Date:

Astronomy

Nov. 08, 2011 Rise Set
Actual Time 6:37 AM MST 4:33 PM MST
Civil Twilight 6:07 AM MST 5:04 PM MST
Nautical Twilight 5:32 AM MST 5:38 PM MST
Astronomical Twilight 4:58 AM MST 6:12 PM MST
Moon 3:16 PM MST (11/8) 4:36 AM MST (11/8)
Length of Visible Light 10h 57m
Length of Day
9h 55m
Waxing Gibbous, 96% of the Moon is Illuminated
Nov 8
Waxing Gibbous
Nov 10
Full
Nov 18
Last Quarter
Nov 24
New
Dec 2
First Quarter

Hourly Weather History & Observations

Time (MST) Temp. Windchill Dew Point Humidity Pressure Visibility Wind Dir Wind Speed Gust Speed Precip Events Conditions
12:52 AM 28.0 °F 21.7 °F 23.0 °F 81% 30.14 in 10.0 mi South 5.8 mph - N/A   Clear
1:52 AM 23.0 °F 18.4 °F 19.9 °F 88% 30.16 in 10.0 mi SSE 3.5 mph - N/A   Clear
2:52 AM 24.1 °F - 19.0 °F 81% 30.15 in 10.0 mi Calm Calm - N/A   Clear
3:52 AM 24.8 °F - 19.4 °F 80% 30.07 in 10.0 mi Calm Calm - N/A   Clear
4:52 AM 19.0 °F - 17.1 °F 92% 30.17 in 10.0 mi Calm Calm - N/A   Scattered Clouds
5:52 AM 27.0 °F - 21.0 °F 78% 30.16 in 10.0 mi Calm Calm - N/A   Overcast
6:52 AM 26.1 °F 19.4 °F 21.0 °F 81% 30.17 in 10.0 mi NW 5.8 mph - N/A   Clear
7:52 AM 33.1 °F 26.9 °F 24.1 °F 70% 30.19 in 10.0 mi NNW 6.9 mph - N/A   Clear
8:52 AM 37.0 °F 30.4 °F 24.1 °F 59% 30.19 in 10.0 mi NNW 9.2 mph - N/A   Clear
9:52 AM 42.1 °F 36.1 °F 25.0 °F 51% 30.19 in 10.0 mi North 10.4 mph - N/A   Clear
10:52 AM 45.0 °F 40.1 °F 26.1 °F 48% 30.19 in 10.0 mi NE 9.2 mph - N/A   Clear
11:52 AM 48.9 °F - 27.0 °F 43% 30.16 in 10.0 mi North 16.1 mph 20.7 mph N/A   Clear
12:52 PM 48.0 °F - 19.9 °F 33% 30.16 in 10.0 mi North 16.1 mph 23.0 mph N/A   Mostly Cloudy
1:52 PM 46.0 °F 39.9 °F 16.0 °F 30% 30.18 in 10.0 mi North 13.8 mph - N/A   Overcast
2:52 PM 48.2 °F - 17.6 °F 30% 30.11 in 10.0 mi North 13.8 mph 20.7 mph N/A   Clear
3:52 PM 44.6 °F 36.9 °F 15.8 °F 31% 30.12 in 10.0 mi NNW 18.4 mph 24.2 mph N/A   Clear
4:52 PM 39.9 °F 31.8 °F 15.1 °F 36% 30.25 in 10.0 mi NNW 15.0 mph - N/A   Clear
5:52 PM 35.1 °F 26.4 °F 15.1 °F 44% 30.29 in 10.0 mi NNW 12.7 mph - N/A   Clear
6:52 PM 33.1 °F 24.4 °F 16.0 °F 50% 30.32 in 10.0 mi NNW 11.5 mph - N/A   Clear
7:52 PM 28.9 °F 20.4 °F 15.1 °F 56% 30.33 in 10.0 mi NW 9.2 mph - N/A   Clear
8:52 PM 28.0 °F 20.8 °F 15.1 °F 58% 30.33 in 10.0 mi WNW 6.9 mph - N/A   Clear
9:52 PM 28.4 °F 22.2 °F 15.8 °F 59% 30.25 in 10.0 mi West 5.8 mph - N/A   Clear
10:52 PM 24.1 °F 17.0 °F 15.1 °F 69% 30.34 in 10.0 mi NW 5.8 mph - N/A   Clear
11:52 PM 24.1 °F 18.2 °F 14.0 °F 65% 30.34 in 10.0 mi WNW 4.6 mph - N/A   Clear